Snel-info
Kleurcode:
Groen
Er mag gevlogen worden.
Laatste update: 21/02/2017
Kleurcode informatie

Grasmaaien:

Geen maaibeurten gepland.

Volgende vliegdagen:

(geen extra vliegdagen gevonden)
Alle extra vliegdagen

Weersituatie op PMF:

Indoormeeting2016_DirkVL_029.jpg

Huidige weersituatie

Huidig weerbeeld in Kleine Brogel, Belgium
Huidige wind in Kleine Brogel, Belgium

Dit is het bericht voor Kleine Brogel, Belgium en werd 12 minuten geleden gemaakt.
De wind waaide met een snelheid van 4.6 meter per seconde (16.7 km/h) uit het zuidwesten (220°).
De temperatuur was 11 °C. De atmosferische druk was 1024 hPa. De relative luchtvochtigheid was 76.3%.
Het was half bewolkt op een hoogte van 2134 meter en zwaar bewolkt op een hoogte van 2896 meter. Het algemene zicht was meer dan 10 kilometer.

De onbewerkte METAR gegevens waarop dit bericht is gebaseerd zijn:
EBBL 290655Z 22009KT 9999 SCT070 BKN095 11/07 Q1024 BLU BLU


Opmerking:
De wind blijkt op PMF meestal iets krachtiger te waaien dan op Kleine Brogel. De windrichting klopt dan weer wel.




KMI

De weersvoorspellingen van het KMI vind je via deze link.


Buienradar

Op www.buienradar.nl kun je zelf zien waar het nu en de komende uren regent.